Content
SEND FEEDBACK

Daily
Averages
Monthly
Summary
United States of America

RIMROCK, ARIZONA


Home > North America > United States > Arizona
Elevation: 1167 meters     Latitude: 34 40N     Longitude: 111 43W

WEATHER
 
SELECT A DAY
Number of Records: 137,699;   Date Range: 1/4/95 - 10/21/14
 
SHARE

PRINT THIS DATA

[ ← Previous Day ]
WEATHER ALMANAC - 17 JANUARY, 2014
[ Next Day → ]
[ °F ]   °C
Weather ElementAverageHighLow
Barometer1024.4 hPa1027.1 hPa (9:55 am)1022.7 hPa (2:55 pm)
Wind Speed11.9 km/h24.1 km/h (7:15 pm)
Wind Gust33.3 km/h (12:55 pm)
Weather ElementAverage
Visibility16.1 km
Wind DirectionENE (74.9 °)

Weather ElementTotal
Precipitation---
Heating Degree Days36.1 (Base 18.3)
Averaged from 71 records on 17 January, 2014
WEATHER CONDITIONS BREAKOUT
WIND DIRECTION BREAKOUT
WEATHER BY HOUR - 17 JANUARY, 2014
[ °F ]   °C
Local TimeTemperatureDewpointHumidityBarometerVisibilityWind DirectionWind SpeedGust SpeedPrecipitationEventsConditions
12:35 AM-17.8 °C-17.8 °C1024.7 hPa16.1 kmNE (50°)9.3 km/hClear
12:55 AM-17.8 °C-17.8 °C1024.7 hPa16.1 kmNE (50°)9.3 km/hClear
1:15 AM-17.8 °C-17.8 °C1024.7 hPa16.1 kmNE (40°)14.8 km/h27.8 km/hClear
1:35 AM-17.8 °C-17.8 °C1024.7 hPa16.1 kmNNE (20°)5.6 km/hClear
1:55 AM-17.8 °C-17.8 °C1025.1 hPa16.1 kmNorth (10°)7.4 km/hClear
2:15 AM-17.8 °C-17.8 °C1025.1 hPa16.1 kmNE (50°)11.1 km/hClear
2:35 AM-17.8 °C-17.8 °C1025.4 hPa16.1 kmENE (60°)11.1 km/hClear
2:55 AM-17.8 °C-17.8 °C1025.4 hPa16.1 kmENE (60°)16.7 km/h27.8 km/hClear
3:15 AM-17.8 °C-17.8 °C1025.4 hPa16.1 kmENE (60°)20.4 km/h29.6 km/hClear
3:35 AM-17.8 °C-17.8 °C1025.1 hPa16.1 kmENE (70°)11.1 km/hClear
3:55 AM-17.8 °C-17.8 °C1025.1 hPa16.1 kmENE (60°)14.8 km/hClear
4:15 AM-17.8 °C-17.8 °C1024.7 hPa16.1 kmENE (60°)16.7 km/hClear
4:35 AM-17.8 °C-17.8 °C1024.7 hPa16.1 kmENE (60°)14.8 km/hClear
4:55 AM-17.8 °C-17.8 °C1025.1 hPa16.1 kmEast (80°)11.1 km/hClear
5:15 AM-17.8 °C-17.8 °C1025.1 hPa16.1 kmEast (80°)11.1 km/hClear
5:35 AM-17.8 °C-17.8 °C1025.4 hPa16.1 kmEast (100°)13 km/hClear
5:55 AM-17.8 °C-17.8 °C1025.7 hPa16.1 kmEast (100°)11.1 km/hClear
6:15 AM-17.8 °C-17.8 °C1025.7 hPa16.1 kmEast (80°)13 km/hClear
6:35 AM-17.8 °C-17.8 °C1025.7 hPa16.1 kmENE (70°)11.1 km/hClear
6:55 AM-17.8 °C-17.8 °C1026.1 hPa16.1 kmENE (60°)14.8 km/hClear
7:15 AM-17.8 °C-17.8 °C1026.1 hPa16.1 kmNE (50°)14.8 km/hClear
7:35 AM-17.8 °C-17.8 °C1026.1 hPa16.1 kmNE (40°)16.7 km/hClear
7:55 AM-17.8 °C-17.8 °C1026.4 hPa16.1 kmNE (40°)16.7 km/hClear
8:15 AM-17.8 °C-17.8 °C1026.4 hPa16.1 kmNE (50°)11.1 km/hClear
8:35 AM-17.8 °C-17.8 °C1026.4 hPa16.1 kmENE (70°)11.1 km/hClear
8:55 AM-17.8 °C-17.8 °C1026.4 hPa16.1 kmEast (90°)14.8 km/hClear
9:15 AM-17.8 °C-17.8 °C1026.4 hPa16.1 kmEast (90°)14.8 km/hClear
9:35 AM-17.8 °C-17.8 °C1026.8 hPa16.1 kmESE (120°)5.6 km/hClear
9:55 AM-17.8 °C-17.8 °C1027.1 hPa16.1 kmSSE (160°)5.6 km/hClear
10:15 AM-17.8 °C-17.8 °C1027.1 hPa16.1 kmSE (130°)7.4 km/hClear
10:35 AM-17.8 °C-17.8 °C1027.1 hPa16.1 kmCalmClear
10:55 AM-17.8 °C-17.8 °C1027.1 hPa16.1 kmCalmClear
11:15 AM-17.8 °C-17.8 °C1026.4 hPa16.1 kmCalmClear
11:35 AM-17.8 °C-17.8 °C1026.1 hPa16.1 kmSouth (170°)5.6 km/hClear
11:55 AM-17.8 °C-17.8 °C1025.7 hPa16.1 kmSE (140°)5.6 km/hClear
12:15 PM-17.8 °C-17.8 °C1025.1 hPa16.1 kmNNE (20°)5.6 km/hClear
12:35 PM-17.8 °C-17.8 °C1024.7 hPa16.1 kmCalmClear
12:55 PM-17.8 °C-17.8 °C1024 hPa16.1 kmNW (310°)11.1 km/h33.3 km/hClear
1:15 PM-17.8 °C-17.8 °C1023.7 hPa16.1 kmSW (220°)5.6 km/hClear
1:35 PM-17.8 °C-17.8 °C1023.7 hPa16.1 kmSSW (200°)5.6 km/hClear
1:55 PM-17.8 °C-17.8 °C1023.4 hPa16.1 kmSW (230°)5.6 km/hClear
2:15 PM-17.8 °C-17.8 °C1023 hPa16.1 kmCalmClear
2:35 PM-17.8 °C-17.8 °C1023 hPa16.1 kmCalmClear
2:55 PM-17.8 °C-17.8 °C1022.7 hPa16.1 kmSE (130°)9.3 km/hClear
3:15 PM-17.8 °C-17.8 °C1022.7 hPa16.1 kmESE (110°)13 km/hClear
3:35 PM-17.8 °C-17.8 °C1022.7 hPa16.1 kmSSE (160°)11.1 km/hClear
3:55 PM-17.8 °C-17.8 °C1022.7 hPa16.1 kmSE (130°)7.4 km/hClear
4:15 PM-17.8 °C-17.8 °C1022.7 hPa16.1 kmCalmClear
4:35 PM-17.8 °C-17.8 °C1022.7 hPa16.1 kmEast (100°)14.8 km/hClear
4:55 PM-17.8 °C-17.8 °C1022.7 hPa16.1 kmENE (70°)5.6 km/hClear
5:15 PM-17.8 °C-17.8 °C1022.7 hPa16.1 kmENE (70°)9.3 km/hClear
5:35 PM-17.8 °C-17.8 °C1022.7 hPa16.1 kmEast (90°)11.1 km/hClear
5:55 PM-17.8 °C-17.8 °C1022.7 hPa16.1 kmEast (90°)13 km/hClear
6:15 PM-17.8 °C-17.8 °C1022.7 hPa16.1 kmENE (70°)13 km/hClear
6:35 PM-17.8 °C-17.8 °C1022.7 hPa16.1 kmENE (70°)14.8 km/hClear
6:55 PM-17.8 °C-17.8 °C1022.7 hPa16.1 kmENE (60°)20.4 km/h25.9 km/hClear
7:15 PM-17.8 °C-17.8 °C1022.7 hPa16.1 kmENE (60°)24.1 km/h33.3 km/hClear
7:35 PM-17.8 °C-17.8 °C1022.7 hPa16.1 kmENE (60°)24.1 km/hClear
7:55 PM-17.8 °C-17.8 °C1022.7 hPa16.1 kmENE (60°)16.7 km/h27.8 km/hClear
8:15 PM-17.8 °C-17.8 °C1022.7 hPa16.1 kmENE (60°)18.5 km/hClear
8:35 PM-17.8 °C-17.8 °C1022.7 hPa16.1 kmNE (50°)18.5 km/hClear
8:55 PM-17.8 °C-17.8 °C1022.7 hPa16.1 kmENE (60°)22.2 km/hClear
9:15 PM-17.8 °C-17.8 °C1022.7 hPa16.1 kmENE (60°)22.2 km/h27.8 km/hClear
9:35 PM-17.8 °C-17.8 °C1022.7 hPa16.1 kmNE (50°)18.5 km/hClear
9:55 PM-17.8 °C-17.8 °C1023 hPa16.1 kmNE (50°)18.5 km/hClear
10:15 PM-17.8 °C-17.8 °C1023 hPa16.1 kmENE (60°)18.5 km/h27.8 km/hClear
10:35 PM-17.8 °C-17.8 °C1023 hPa16.1 kmNE (50°)18.5 km/hClear
10:55 PM-17.8 °C-17.8 °C1023 hPa16.1 kmNE (50°)20.4 km/h27.8 km/hClear
11:15 PM-17.8 °C-17.8 °C1023 hPa16.1 kmNE (50°)16.7 km/hClear
11:35 PM-17.8 °C-17.8 °C1023 hPa16.1 kmNE (50°)20.4 km/hClear
11:55 PM-17.8 °C-17.8 °C1023 hPa16.1 kmNE (50°)16.7 km/hClear
Hourly data recorded from KSEZ, located 0 kilometers away from Rimrock, Arizona







STORIES FROM OUR PARTNERS